| time (UTC) | temp F | wind direction | speed MPH | gust MPH | rain 1hr in | rain 24hr in | rain mn in | humidity % | barometer mb |
| 20260509184542 | 74 | 99 | 0.0 | 2.0 | 0.00 | 0.00 | 0.00 | 59 | 1010.4 |
| 20260509183109 | 73 | 94 | 1.0 | 3.0 | 0.00 | 0.00 | 0.00 | 61 | 1010.6 |
| 20260509181601 | 73 | 83 | 2.0 | 4.0 | 0.00 | 0.00 | 0.00 | 61 | 1010.3 |
| 20260509180042 | 72 | 96 | 1.0 | 2.0 | 0.00 | 0.00 | 0.00 | 61 | 1010.5 |
| 20260509174545 | 73 | 77 | 1.0 | 3.0 | 0.00 | 0.00 | 0.00 | 66 | 1010.8 |
| 20260509173046 | 72 | 89 | 2.0 | 4.0 | 0.00 | 0.00 | 0.00 | 63 | 1010.7 |
| 20260509171544 | 71 | 0 | 1.0 | 3.0 | 0.00 | 0.00 | 0.00 | 67 | 1010.6 |
| 20260509170043 | 71 | 108 | 1.0 | 3.0 | 0.00 | 0.00 | 0.00 | 65 | 1010.8 |
| 20260509164558 | 70 | 116 | 0.0 | 3.0 | 0.00 | 0.00 | 0.00 | 65 | 1010.8 |
| 20260509163045 | 70 | 99 | 1.0 | 3.0 | 0.00 | 0.00 | 0.00 | 64 | 1010.5 |
| 20260509161543 | 70 | 111 | 0.0 | 2.0 | 0.00 | 0.00 | 0.00 | 66 | 1010.5 |
| 20260509160042 | 70 | 78 | 1.0 | 2.0 | 0.00 | 0.00 | 0.00 | 66 | 1010.6 |
| 20260509154551 | 69 | 94 | 1.0 | 2.0 | 0.00 | 0.00 | 0.00 | 68 | 1010.5 |
| 20260509153043 | 68 | 94 | 0.0 | 3.0 | 0.00 | 0.00 | 0.00 | 70 | 1010.4 |
| 20260509151550 | 67 | 97 | 0.0 | 2.0 | 0.00 | 0.00 | 0.00 | 70 | 1010.3 |
| 20260509150046 | 66 | 0 | 0.0 | 2.0 | 0.00 | 0.00 | 0.00 | 72 | 1010.2 |
| 20260509144545 | 65 | 155 | 0.0 | 2.0 | 0.00 | 0.00 | 0.00 | 71 | 1010.3 |
| 20260509143043 | 64 | 93 | 1.0 | 2.0 | 0.00 | 0.00 | 0.00 | 74 | 1010.1 |
| 20260509141543 | 63 | 99 | 0.0 | 5.0 | 0.00 | 0.00 | 0.00 | 79 | 1010.1 |
| 20260509140048 | 61 | 127 | 1.0 | 2.0 | 0.00 | 0.00 | 0.00 | 79 | 1009.9 |
| 20260509134546 | 60 | 221 | 0.0 | 1.0 | 0.00 | 0.00 | 0.00 | 80 | 1010.0 |
| 20260509133046 | 58 | 269 | 1.0 | 3.0 | 0.00 | 0.00 | 0.00 | 83 | 1010.0 |
| 20260509131544 | 57 | 262 | 1.0 | 3.0 | 0.00 | 0.00 | 0.00 | 84 | 1010.0 |
| 20260509130045 | 56 | 257 | 0.0 | 3.0 | 0.00 | 0.00 | 0.00 | 85 | 1009.8 |
| 20260509124543 | 56 | 269 | 0.0 | 2.0 | 0.00 | 0.00 | 0.00 | 85 | 1009.8 |
| 20260509123046 | 56 | 266 | 0.0 | 3.0 | 0.00 | 0.00 | 0.00 | 86 | 1009.8 |
| 20260509121544 | 56 | 257 | 1.0 | 3.0 | 0.00 | 0.00 | 0.00 | 86 | 1009.8 |
| 20260509120050 | 56 | 264 | 1.0 | 4.0 | 0.00 | 0.00 | 0.00 | 86 | 1009.7 |
| 20260509114543 | 55 | 0 | 0.0 | 3.0 | 0.00 | 0.00 | 0.00 | 86 | 1009.4 |
| 20260509113044 | 55 | 354 | 0.0 | 3.0 | 0.00 | 0.00 | 0.00 | 86 | 1009.1 |
| 20260509111551 | 55 | 194 | 0.0 | 2.0 | 0.00 | 0.00 | 0.00 | 86 | 1009.3 |
| 20260509110045 | 55 | 0 | 0.0 | 2.0 | 0.00 | 0.00 | 0.00 | 86 | 1009.3 |
| 20260509104544 | 55 | 0 | 1.0 | 3.0 | 0.00 | 0.00 | 0.00 | 86 | 1009.1 |
| 20260509103044 | 55 | 0 | 0.0 | 3.0 | 0.00 | 0.00 | 0.00 | 86 | 1009.2 |
| 20260509101555 | 56 | 0 | 0.0 | 2.0 | 0.00 | 0.00 | 0.00 | 86 | 1009.2 |
| 20260509100048 | 56 | 0 | 0.0 | 2.0 | 0.00 | 0.00 | 0.00 | 85 | 1009.3 |
| 20260509094545 | 56 | 206 | 0.0 | 2.0 | 0.00 | 0.00 | 0.00 | 85 | 1009.3 |
| 20260509093054 | 56 | 0 | 0.0 | 0.0 | 0.00 | 0.00 | 0.00 | 85 | 1009.4 |
| 20260509091543 | 56 | 187 | 0.0 | 2.0 | 0.00 | 0.00 | 0.00 | 85 | 1009.6 |
| 20260509090051 | 56 | 0 | 0.0 | 2.0 | 0.00 | 0.00 | 0.00 | 84 | 1009.8 |
| 20260509084554 | 56 | 193 | 0.0 | 2.0 | 0.00 | 0.00 | 0.00 | 83 | 1009.8 |
| 20260509083047 | 56 | 195 | 0.0 | 2.0 | 0.00 | 0.00 | 0.00 | 82 | 1009.5 |
| 20260509081544 | 56 | 193 | 0.0 | 2.0 | 0.00 | 0.00 | 0.00 | 82 | 1009.6 |
| 20260509080053 | 56 | 200 | 0.0 | 3.0 | 0.00 | 0.00 | 0.00 | 80 | 1009.7 |
| 20260509074541 | 56 | 0 | 0.0 | 1.0 | 0.00 | 0.00 | 0.00 | 78 | 1009.8 |
| 20260509073046 | 57 | 0 | 0.0 | 0.0 | 0.00 | 0.00 | 0.00 | 77 | 1009.6 |
| 20260509071552 | 57 | 0 | 0.0 | 0.0 | 0.00 | 0.00 | 0.00 | 76 | 1009.7 |
| 20260509070048 | 57 | 0 | 0.0 | 0.0 | 0.00 | 0.00 | 0.00 | 75 | 1009.9 |
| 20260509064554 | 57 | 0 | 0.0 | 0.0 | 0.00 | 0.00 | 0.00 | 77 | 1010.2 |
| 20260509063049 | 58 | 0 | 0.0 | 0.0 | 0.00 | 0.00 | 0.00 | 76 | 1010.2 |
| 20260509061546 | 58 | 0 | 0.0 | 0.0 | 0.00 | 0.00 | 0.00 | 73 | 1010.2 |
| 20260509060047 | 58 | 0 | 0.0 | 0.0 | 0.00 | 0.00 | 0.00 | 74 | 1010.3 |
| 20260509054554 | 58 | 0 | 0.0 | 0.0 | 0.00 | 0.00 | 0.00 | 73 | 1010.3 |
| 20260509053047 | 58 | 0 | 0.0 | 0.0 | 0.00 | 0.00 | 0.00 | 73 | 1010.3 |
| 20260509051557 | 59 | 0 | 0.0 | 0.0 | 0.00 | 0.00 | 0.00 | 71 | 1010.3 |
| 20260509050050 | 59 | 0 | 0.0 | 0.0 | 0.00 | 0.00 | 0.00 | 71 | 1010.3 |
| 20260509044550 | 59 | 0 | 0.0 | 0.0 | 0.00 | 0.00 | 0.00 | 68 | 1010.2 |
| 20260509043044 | 59 | 0 | 0.0 | 0.0 | 0.00 | 0.00 | 0.00 | 69 | 1010.2 |
| 20260509041551 | 59 | 0 | 0.0 | 0.0 | 0.00 | 0.00 | 0.00 | 69 | 1010.2 |
| 20260509040049 | 59 | 0 | 0.0 | 0.0 | 0.00 | 0.00 | 0.00 | 68 | 1010.2 |
| 20260509034546 | 60 | 0 | 0.0 | 0.0 | 0.00 | 0.00 | 0.00 | 67 | 1010.3 |
| 20260509033100 | 61 | 0 | 0.0 | 0.0 | 0.00 | 0.00 | 0.00 | 65 | 1010.7 |
| 20260509031552 | 61 | 0 | 0.0 | 2.0 | 0.00 | 0.00 | 0.00 | 64 | 1010.7 |
| 20260509030044 | 61 | 0 | 0.0 | 1.0 | 0.00 | 0.00 | 0.00 | 63 | 1010.9 |
| 20260509024546 | 61 | 0 | 0.0 | 1.0 | 0.00 | 0.00 | 0.00 | 62 | 1010.8 |
| 20260509023047 | 61 | 0 | 0.0 | 1.0 | 0.00 | 0.00 | 0.00 | 67 | 1011.1 |
| 20260509021550 | 61 | 0 | 0.0 | 0.0 | 0.00 | 0.00 | 0.00 | 64 | 1011.2 |
| 20260509020047 | 61 | 0 | 0.0 | 0.0 | 0.00 | 0.00 | 0.00 | 64 | 1011.1 |
| 20260509014551 | 61 | 0 | 0.0 | 0.0 | 0.00 | 0.00 | 0.00 | 62 | 1011.1 |
| 20260509013052 | 61 | 0 | 0.0 | 0.0 | 0.00 | 0.00 | 0.00 | 63 | 1011.0 |
| 20260509011547 | 61 | 0 | 0.0 | 0.0 | 0.00 | 0.00 | 0.00 | 62 | 1010.9 |
| 20260509010048 | 62 | 0 | 0.0 | 0.0 | 0.00 | 0.00 | 0.00 | 58 | 1011.0 |
| 20260509004546 | 63 | 0 | 0.0 | 1.0 | 0.00 | 0.00 | 0.00 | 60 | 1010.9 |
| 20260509003046 | 64 | 91 | 0.0 | 1.0 | 0.00 | 0.00 | 0.00 | 59 | 1010.9 |
| 20260509001544 | 65 | 91 | 0.0 | 1.0 | 0.00 | 0.00 | 0.00 | 58 | 1010.9 |
| 20260509000049 | 66 | 0 | 0.0 | 2.0 | 0.00 | 0.00 | 0.00 | 56 | 1010.9 |
| 20260508234546 | 67 | 72 | 1.0 | 3.0 | 0.00 | 0.00 | 0.00 | 53 | 1011.0 |
| 20260508233100 | 67 | 49 | 1.0 | 3.0 | 0.00 | 0.00 | 0.00 | 53 | 1010.9 |
| 20260508231546 | 68 | 82 | 1.0 | 4.0 | 0.00 | 0.00 | 0.00 | 52 | 1011.1 |
| 20260508230056 | 68 | 85 | 1.0 | 6.0 | 0.00 | 0.00 | 0.00 | 53 | 1011.0 |
| 20260508224543 | 68 | 84 | 1.0 | 3.0 | 0.00 | 0.00 | 0.00 | 49 | 1011.3 |
| 20260508223048 | 69 | 64 | 2.0 | 3.0 | 0.00 | 0.00 | 0.00 | 52 | 1011.1 |
| 20260508221545 | 69 | 63 | 2.0 | 4.0 | 0.00 | 0.00 | 0.00 | 48 | 1010.9 |
| 20260508220046 | 69 | 75 | 1.0 | 3.0 | 0.00 | 0.00 | 0.00 | 49 | 1010.8 |
| 20260508214543 | 70 | 47 | 1.0 | 4.0 | 0.00 | 0.00 | 0.00 | 52 | 1010.7 |
| 20260508213040 | 70 | 77 | 1.0 | 4.0 | 0.00 | 0.00 | 0.00 | 47 | 1010.7 |
| 20260508211546 | 70 | 72 | 1.0 | 4.0 | 0.00 | 0.00 | 0.00 | 51 | 1011.1 |
| 20260508210046 | 70 | 94 | 2.0 | 4.0 | 0.00 | 0.00 | 0.00 | 47 | 1011.3 |
| 20260508204550 | 70 | 0 | 1.0 | 3.0 | 0.00 | 0.00 | 0.00 | 48 | 1011.3 |
| 20260508203051 | 71 | 106 | 1.0 | 3.0 | 0.00 | 0.00 | 0.00 | 48 | 1011.6 |
| 20260508201547 | 71 | 90 | 1.0 | 5.0 | 0.00 | 0.00 | 0.00 | 47 | 1011.9 |
| 20260508200049 | 71 | 46 | 2.0 | 4.0 | 0.00 | 0.00 | 0.00 | 47 | 1012.2 |
| 20260508194547 | 71 | 75 | 1.0 | 3.0 | 0.00 | 0.00 | 0.00 | 48 | 1012.4 |
| 20260508193046 | 71 | 91 | 2.0 | 5.0 | 0.00 | 0.00 | 0.00 | 45 | 1012.7 |
| 20260508191550 | 71 | 94 | 3.0 | 5.0 | 0.00 | 0.00 | 0.00 | 44 | 1013.0 |
| 20260508190052 | 71 | 43 | 2.0 | 4.0 | 0.00 | 0.00 | 0.00 | 46 | 1013.2 |